Time,TemperatureF,DewpointF,PressureIn,WindDirection,WindDirectionDegrees,WindSpeedMPH,WindSpeedGustMPH,Humidity,HourlyPrecipIn,Conditions,Clouds,dailyrainin,SoftwareType,DateUTC
2013-03-11 00:00:00,27.6,22.8,29.92,NNW,334,3.0,12.0,82,0.00,,---,0.01,VWS V13.01,2013-03-11 05:00:00,
2013-03-11 00:05:00,27.6,22.8,29.92,NNW,338,0.0,10.0,82,0.00,,---,0.00,VWS V13.01,2013-03-11 05:05:00,
2013-03-11 00:10:00,27.5,22.7,29.92,North,349,5.0,12.0,82,0.00,,---,0.00,VWS V13.01,2013-03-11 05:10:00,
2013-03-11 00:15:00,27.5,22.7,29.92,North,360,3.0,12.0,82,0.00,,---,0.00,VWS V13.01,2013-03-11 05:15:00,
2013-03-11 00:20:00,27.5,22.7,29.92,North,355,2.0,11.0,82,0.00,,---,0.00,VWS V13.01,2013-03-11 05:20:00,
2013-03-11 00:25:00,27.4,22.6,29.91,NNW,341,2.0,11.0,82,0.00,,---,0.00,VWS V13.01,2013-03-11 05:25:00,
2013-03-11 00:30:00,27.4,22.6,29.91,North,11,5.0,13.0,82,0.00,,---,0.00,VWS V13.01,2013-03-11 05:30:00,
2013-03-11 00:35:00,27.4,22.6,29.91,North,355,4.0,10.0,82,0.00,,---,0.00,VWS V13.01,2013-03-11 05:35:00,
2013-03-11 00:40:00,27.3,22.5,29.91,NNE,14,3.0,10.0,82,0.00,,---,0.00,VWS V13.01,2013-03-11 05:40:00,
2013-03-11 00:45:00,27.3,22.5,29.91,North,360,3.0,10.0,82,0.00,,---,0.00,VWS V13.01,2013-03-11 05:45:00,
2013-03-11 00:50:00,27.2,22.4,29.91,NNW,345,11.0,15.0,82,0.00,,---,0.00,VWS V13.01,2013-03-11 05:50:00,
2013-03-11 00:55:00,27.2,22.4,29.91,NNE,16,3.0,15.0,82,0.00,,---,0.00,VWS V13.01,2013-03-11 05:55:00,
2013-03-11 01:00:00,27.2,22.4,29.91,NNE,15,0.0,15.0,82,0.00,,---,0.00,VWS V13.01,2013-03-11 06:00:00,
2013-03-11 01:05:00,27.2,22.4,29.91,North,355,4.0,9.0,82,0.00,,---,0.00,VWS V13.01,2013-03-11 06:05:00,
2013-03-11 01:10:00,27.1,22.4,29.91,NNE,13,5.0,14.0,82,0.00,,---,0.00,VWS V13.01,2013-03-11 06:10:00,
2013-03-11 01:15:00,27.1,22.4,29.91,North,9,3.0,14.0,82,0.00,,---,0.00,VWS V13.01,2013-03-11 06:15:00,
2013-03-11 01:20:00,27.0,22.2,29.91,North,355,4.0,9.0,82,0.00,,---,0.00,VWS V13.01,2013-03-11 06:20:00,
2013-03-11 01:25:00,27.0,22.2,29.91,NNW,346,5.0,11.0,82,0.00,,---,0.00,VWS V13.01,2013-03-11 06:25:00,
2013-03-11 01:30:00,27.0,22.2,29.91,NNW,348,1.0,11.0,82,0.00,,---,0.00,VWS V13.01,2013-03-11 06:30:00,
2013-03-11 01:35:00,27.0,22.2,29.91,NNW,333,1.0,7.0,82,0.00,,---,0.00,VWS V13.01,2013-03-11 06:35:00,
2013-03-11 01:40:00,27.0,22.2,29.91,North,355,1.0,10.0,82,0.00,,---,0.00,VWS V13.01,2013-03-11 06:40:00,
2013-03-11 01:45:00,27.0,22.2,29.91,NNW,344,3.0,10.0,82,0.00,,---,0.00,VWS V13.01,2013-03-11 06:45:00,
2013-03-11 01:50:00,26.9,22.1,29.91,NNW,345,3.0,7.0,82,0.00,,---,0.00,VWS V13.01,2013-03-11 06:50:00,
2013-03-11 01:55:00,26.9,22.1,29.91,NNW,340,6.0,8.0,82,0.00,,---,0.00,VWS V13.01,2013-03-11 06:55:00,
2013-03-11 02:00:00,26.9,22.1,29.91,North,355,0.0,8.0,82,0.00,,---,0.00,VWS V13.01,2013-03-11 07:00:00,
2013-03-11 02:05:00,26.8,22.0,29.90,NNW,338,3.0,6.0,82,0.00,,---,0.00,VWS V13.01,2013-03-11 07:05:00,
2013-03-11 02:10:00,26.8,22.0,29.90,NNW,333,3.0,7.0,82,0.00,,---,0.00,VWS V13.01,2013-03-11 07:10:00,
2013-03-11 02:15:00,26.8,22.0,29.90,North,350,0.0,12.0,82,0.00,,---,0.00,VWS V13.01,2013-03-11 07:15:00,
2013-03-11 02:20:00,26.8,22.0,29.90,North,355,3.0,10.0,82,0.00,,---,0.00,VWS V13.01,2013-03-11 07:20:00,
2013-03-11 02:25:00,26.8,22.0,29.90,North,355,4.0,10.0,82,0.00,,---,0.00,VWS V13.01,2013-03-11 07:25:00,
2013-03-11 02:30:00,26.8,22.0,29.90,North,355,4.0,11.0,82,0.00,,---,0.00,VWS V13.01,2013-03-11 07:30:00,
2013-03-11 02:35:00,26.7,22.0,29.90,NNW,331,2.0,11.0,82,0.00,,---,0.00,VWS V13.01,2013-03-11 07:35:00,
2013-03-11 02:40:00,26.7,22.0,29.90,NNW,329,4.0,11.0,82,0.00,,---,0.00,VWS V13.01,2013-03-11 07:40:00,
2013-03-11 02:45:00,26.7,22.0,29.90,NNW,348,3.0,11.0,82,0.00,,---,0.00,VWS V13.01,2013-03-11 07:45:00,
2013-03-11 02:50:00,26.7,22.0,29.90,North,360,1.0,5.0,82,0.00,,---,0.00,VWS V13.01,2013-03-11 07:50:00,
2013-03-11 02:55:00,26.6,21.9,29.90,North,355,5.0,11.0,82,0.00,,---,0.00,VWS V13.01,2013-03-11 07:55:00,
2013-03-11 03:00:00,26.6,21.9,29.90,North,355,2.0,11.0,82,0.00,,---,0.00,VWS V13.01,2013-03-11 08:00:00,
2013-03-11 03:05:00,26.6,21.9,29.90,North,355,0.0,6.0,82,0.00,,---,0.00,VWS V13.01,2013-03-11 08:05:00,
2013-03-11 03:10:00,26.6,22.1,29.90,North,355,3.0,10.0,83,0.00,,---,0.00,VWS V13.01,2013-03-11 08:10:00,
2013-03-11 03:15:00,26.5,21.8,29.90,NNW,346,4.0,11.0,82,0.00,,---,0.00,VWS V13.01,2013-03-11 08:15:00,
2013-03-11 03:20:00,26.5,21.8,29.89,North,355,0.0,10.0,82,0.00,,---,0.00,VWS V13.01,2013-03-11 08:20:00,
2013-03-11 03:25:00,26.5,22.0,29.89,North,355,5.0,10.0,83,0.00,,---,0.00,VWS V13.01,2013-03-11 08:25:00,
2013-03-11 03:30:00,26.5,22.0,29.89,North,360,4.0,11.0,83,0.00,,---,0.00,VWS V13.01,2013-03-11 08:30:00,
2013-03-11 03:35:00,26.4,22.0,29.89,North,360,1.0,8.0,83,0.00,,---,0.00,VWS V13.01,2013-03-11 08:35:00,
2013-03-11 03:40:00,26.4,22.0,29.89,North,350,5.0,8.0,83,0.00,,---,0.00,VWS V13.01,2013-03-11 08:40:00,
2013-03-11 03:45:00,26.3,21.9,29.89,NNE,16,0.0,8.0,83,0.00,,---,0.00,VWS V13.01,2013-03-11 08:45:00,
2013-03-11 03:50:00,26.3,21.9,29.88,North,5,4.0,11.0,83,0.00,,---,0.00,VWS V13.01,2013-03-11 08:50:00,
2013-03-11 03:55:00,26.2,21.8,29.88,NNW,348,3.0,11.0,83,0.00,,---,0.00,VWS V13.01,2013-03-11 08:55:00,
2013-03-11 04:00:00,26.2,21.8,29.88,North,355,6.0,12.0,83,0.00,,---,0.00,VWS V13.01,2013-03-11 09:00:00,
2013-03-11 04:05:00,26.2,21.8,29.88,North,355,2.0,10.0,83,0.00,,---,0.00,VWS V13.01,2013-03-11 09:05:00,
2013-03-11 04:10:00,26.1,21.6,29.88,North,360,4.0,10.0,83,0.00,,---,0.00,VWS V13.01,2013-03-11 09:10:00,
2013-03-11 04:15:00,26.0,21.6,29.88,NNW,336,2.0,11.0,83,0.00,,---,0.00,VWS V13.01,2013-03-11 09:15:00,
2013-03-11 04:20:00,26.0,21.6,29.87,NW,315,5.0,6.0,83,0.00,,---,0.00,VWS V13.01,2013-03-11 09:20:00,
2013-03-11 04:25:00,25.9,21.5,29.87,North,355,3.0,10.0,83,0.00,,---,0.00,VWS V13.01,2013-03-11 09:25:00,
2013-03-11 04:30:00,25.8,21.6,29.87,NNW,343,0.0,10.0,84,0.00,,---,0.00,VWS V13.01,2013-03-11 09:30:00,
2013-03-11 04:35:00,25.8,21.6,29.87,North,351,3.0,10.0,84,0.00,,---,0.00,VWS V13.01,2013-03-11 09:35:00,
2013-03-11 04:40:00,25.7,21.5,29.87,North,355,10.0,10.0,84,0.00,,---,0.00,VWS V13.01,2013-03-11 09:40:00,
2013-03-11 04:45:00,25.7,21.5,29.87,North,355,3.0,10.0,84,0.00,,---,0.00,VWS V13.01,2013-03-11 09:45:00,
2013-03-11 04:50:00,25.6,21.5,29.86,North,355,2.0,10.0,84,0.00,,---,0.00,VWS V13.01,2013-03-11 09:50:00,
2013-03-11 04:55:00,25.5,21.4,29.86,North,360,2.0,10.0,84,0.00,,---,0.00,VWS V13.01,2013-03-11 09:55:00,
2013-03-11 05:00:00,25.5,21.4,29.86,NNE,29,2.0,10.0,84,0.00,,---,0.00,VWS V13.01,2013-03-11 10:00:00,
2013-03-11 05:05:00,25.4,21.2,29.86,North,355,1.0,7.0,84,0.00,,---,0.00,VWS V13.01,2013-03-11 10:05:00,
2013-03-11 05:10:00,25.4,21.2,29.86,North,355,10.0,10.0,84,0.00,,---,0.00,VWS V13.01,2013-03-11 10:10:00,
2013-03-11 05:15:00,25.4,21.2,29.86,North,360,3.0,10.0,84,0.00,,---,0.00,VWS V13.01,2013-03-11 10:15:00,
2013-03-11 05:20:00,25.3,21.1,29.86,North,355,5.0,9.0,84,0.00,,---,0.00,VWS V13.01,2013-03-11 10:20:00,
2013-03-11 05:25:00,25.3,21.1,29.86,NNW,327,6.0,9.0,84,0.00,,---,0.00,VWS V13.01,2013-03-11 10:25:00,
2013-03-11 05:30:00,25.3,21.1,29.86,North,355,2.0,9.0,84,0.00,,---,0.00,VWS V13.01,2013-03-11 10:30:00,
2013-03-11 05:35:00,25.3,21.1,29.86,North,355,3.0,7.0,84,0.00,,---,0.00,VWS V13.01,2013-03-11 10:35:00,
2013-03-11 05:40:00,25.3,21.1,29.86,North,355,4.0,12.0,84,0.00,,---,0.00,VWS V13.01,2013-03-11 10:40:00,
2013-03-11 05:45:00,25.3,21.1,29.86,NW,326,4.0,12.0,84,0.00,,---,0.00,VWS V13.01,2013-03-11 10:45:00,
2013-03-11 05:50:00,25.3,21.1,29.86,NNW,331,4.0,5.0,84,0.00,,---,0.00,VWS V13.01,2013-03-11 10:50:00,
2013-03-11 05:55:00,25.3,21.1,29.85,North,355,3.0,7.0,84,0.00,,---,0.00,VWS V13.01,2013-03-11 10:55:00,
2013-03-11 06:00:00,25.3,21.1,29.86,North,350,1.0,7.0,84,0.00,,---,0.00,VWS V13.01,2013-03-11 11:00:00,
2013-03-11 06:05:00,25.3,21.1,29.86,NNW,345,0.0,8.0,84,0.00,,---,0.00,VWS V13.01,2013-03-11 11:05:00,
2013-03-11 06:10:00,25.3,21.1,29.86,NW,307,7.0,8.0,84,0.00,,---,0.00,VWS V13.01,2013-03-11 11:10:00,
2013-03-11 06:15:00,25.3,21.1,29.85,NNW,341,0.0,8.0,84,0.00,,---,0.00,VWS V13.01,2013-03-11 11:15:00,
2013-03-11 06:20:00,25.3,21.1,29.85,NW,319,2.0,9.0,84,0.00,,---,0.00,VWS V13.01,2013-03-11 11:20:00,
2013-03-11 06:25:00,25.2,21.0,29.85,North,349,4.0,9.0,84,0.00,,---,0.00,VWS V13.01,2013-03-11 11:25:00,
2013-03-11 06:30:00,25.3,21.1,29.85,NNW,333,0.0,9.0,84,0.00,,---,0.00,VWS V13.01,2013-03-11 11:30:00,
2013-03-11 06:35:00,25.2,21.0,29.85,North,355,2.0,11.0,84,0.00,,---,0.00,VWS V13.01,2013-03-11 11:35:00,
2013-03-11 06:40:00,25.2,21.0,29.85,NNW,348,3.0,11.0,84,0.00,,---,0.00,VWS V13.01,2013-03-11 11:40:00,
2013-03-11 06:45:00,25.1,21.0,29.85,NNW,331,4.0,11.0,84,0.00,,---,0.00,VWS V13.01,2013-03-11 11:45:00,
2013-03-11 06:50:00,25.1,21.0,29.85,NNW,341,6.0,11.0,84,0.00,,---,0.00,VWS V13.01,2013-03-11 11:50:00,
2013-03-11 06:55:00,25.0,20.9,29.85,North,355,2.0,11.0,84,0.00,,---,0.00,VWS V13.01,2013-03-11 11:55:00,
2013-03-11 07:00:00,24.9,20.8,29.85,NNW,342,5.0,11.0,84,0.00,,---,0.00,VWS V13.01,2013-03-11 12:00:00,
2013-03-11 07:05:00,24.9,20.8,29.85,North,360,0.0,7.0,84,0.00,,---,0.00,VWS V13.01,2013-03-11 12:05:00,
2013-03-11 07:10:00,24.9,20.8,29.85,NNW,344,3.0,7.0,84,0.00,,---,0.00,VWS V13.01,2013-03-11 12:10:00,
2013-03-11 07:15:00,24.8,20.7,29.85,North,355,6.0,7.0,84,0.00,,---,0.00,VWS V13.01,2013-03-11 12:15:00,
2013-03-11 07:20:00,24.8,20.7,29.85,North,5,5.0,7.0,84,0.00,,---,0.00,VWS V13.01,2013-03-11 12:20:00,
2013-03-11 07:25:00,24.8,20.7,29.85,NNW,346,1.0,7.0,84,0.00,,---,0.00,VWS V13.01,2013-03-11 12:25:00,
2013-03-11 07:30:00,24.8,20.7,29.85,NW,326,0.0,7.0,84,0.00,,---,0.00,VWS V13.01,2013-03-11 12:30:00,
2013-03-11 07:35:00,24.8,20.7,29.85,NNW,346,2.0,9.0,84,0.00,,---,0.00,VWS V13.01,2013-03-11 12:35:00,
2013-03-11 07:40:00,24.7,20.6,29.85,WNW,298,3.0,9.0,84,0.00,,---,0.00,VWS V13.01,2013-03-11 12:40:00,
2013-03-11 07:45:00,24.7,20.8,29.85,WNW,294,1.0,9.0,85,0.00,,---,0.00,VWS V13.01,2013-03-11 12:45:00,
2013-03-11 07:50:00,24.7,20.8,29.85,NNW,340,5.0,6.0,85,0.00,,---,0.00,VWS V13.01,2013-03-11 12:50:00,
2013-03-11 07:55:00,24.6,20.7,29.85,NW,323,0.0,6.0,85,0.00,,---,0.00,VWS V13.01,2013-03-11 12:55:00,
2013-03-11 08:00:00,24.5,20.6,29.85,NNW,341,5.0,6.0,85,0.00,,---,0.00,VWS V13.01,2013-03-11 13:00:00,
2013-03-11 08:05:00,24.5,20.6,29.85,NNW,346,8.0,9.0,85,0.00,,---,0.00,VWS V13.01,2013-03-11 13:05:00,
2013-03-11 08:10:00,24.5,20.6,29.85,NW,311,2.0,9.0,85,0.00,,---,0.00,VWS V13.01,2013-03-11 13:10:00,
2013-03-11 08:15:00,24.5,20.6,29.85,NNW,348,4.0,9.0,85,0.00,,---,0.00,VWS V13.01,2013-03-11 13:15:00,
2013-03-11 08:20:00,24.4,20.5,29.86,WNW,299,4.0,7.0,85,0.00,,---,0.00,VWS V13.01,2013-03-11 13:20:00,
2013-03-11 08:25:00,24.4,20.5,29.86,NNW,336,4.0,7.0,85,0.00,,---,0.00,VWS V13.01,2013-03-11 13:25:00,
2013-03-11 08:30:00,24.4,20.5,29.86,NW,323,5.0,7.0,85,0.00,,---,0.00,VWS V13.01,2013-03-11 13:30:00,
2013-03-11 08:35:00,24.4,20.5,29.86,NW,325,1.0,7.0,85,0.00,,---,0.00,VWS V13.01,2013-03-11 13:35:00,
2013-03-11 08:40:00,24.4,20.5,29.86,NNW,345,7.0,7.0,85,0.00,,---,0.00,VWS V13.01,2013-03-11 13:40:00,
2013-03-11 08:45:00,24.3,20.2,29.86,NNW,342,0.0,7.0,84,0.00,,---,0.00,VWS V13.01,2013-03-11 13:45:00,
2013-03-11 08:50:00,24.4,20.5,29.86,North,360,0.0,5.0,85,0.00,,---,0.00,VWS V13.01,2013-03-11 13:50:00,
2013-03-11 08:55:00,24.4,20.5,29.86,NNW,341,1.0,6.0,85,0.00,,---,0.00,VWS V13.01,2013-03-11 13:55:00,
2013-03-11 09:00:00,24.5,20.6,29.86,NW,306,1.0,7.0,85,0.00,,---,0.00,VWS V13.01,2013-03-11 14:00:00,
2013-03-11 09:05:00,24.5,20.6,29.86,NW,322,2.0,6.0,85,0.00,,---,0.00,VWS V13.01,2013-03-11 14:05:00,
2013-03-11 09:10:00,24.6,20.5,29.86,NW,311,7.0,10.0,84,0.00,,---,0.00,VWS V13.01,2013-03-11 14:10:00,
2013-03-11 09:15:00,24.5,20.4,29.86,NNW,345,7.0,13.0,84,0.00,,---,0.00,VWS V13.01,2013-03-11 14:15:00,
2013-03-11 09:20:00,24.6,20.5,29.86,NW,309,3.0,8.0,84,0.00,,---,0.00,VWS V13.01,2013-03-11 14:20:00,
2013-03-11 09:25:00,24.6,20.5,29.86,NW,318,5.0,8.0,84,0.00,,---,0.00,VWS V13.01,2013-03-11 14:25:00,
2013-03-11 09:30:00,24.7,20.6,29.86,North,350,5.0,10.0,84,0.00,,---,0.00,VWS V13.01,2013-03-11 14:30:00,
2013-03-11 09:35:00,24.7,20.6,29.86,NNW,331,1.0,9.0,84,0.00,,---,0.00,VWS V13.01,2013-03-11 14:35:00,
2013-03-11 09:40:00,24.8,20.7,29.86,NNW,337,3.0,9.0,84,0.00,,---,0.00,VWS V13.01,2013-03-11 14:40:00,
2013-03-11 09:45:00,24.9,20.8,29.86,NW,317,4.0,9.0,84,0.00,,---,0.00,VWS V13.01,2013-03-11 14:45:00,
2013-03-11 09:50:00,25.0,20.9,29.86,North,351,4.0,11.0,84,0.00,,---,0.00,VWS V13.01,2013-03-11 14:50:00,
2013-03-11 09:55:00,25.1,21.0,29.86,NNW,340,2.0,11.0,84,0.00,,---,0.00,VWS V13.01,2013-03-11 14:55:00,
2013-03-11 10:00:00,25.2,21.0,29.85,West,268,2.0,11.0,84,0.00,,---,0.00,VWS V13.01,2013-03-11 15:00:00,
2013-03-11 10:05:00,25.4,21.2,29.85,NW,324,2.0,4.0,84,0.00,,---,0.00,VWS V13.01,2013-03-11 15:05:00,
2013-03-11 10:10:00,25.6,21.5,29.85,NNW,337,0.0,9.0,84,0.00,,---,0.00,VWS V13.01,2013-03-11 15:10:00,
2013-03-11 10:15:00,25.6,21.5,29.85,NNW,342,2.0,13.0,84,0.00,,---,0.00,VWS V13.01,2013-03-11 15:15:00,
2013-03-11 10:20:00,25.7,21.5,29.85,NNW,340,1.0,7.0,84,0.00,,---,0.00,VWS V13.01,2013-03-11 15:20:00,
2013-03-11 10:25:00,25.8,21.6,29.85,WNW,294,4.0,11.0,84,0.00,,---,0.00,VWS V13.01,2013-03-11 15:25:00,
2013-03-11 10:30:00,25.7,21.3,29.85,NNW,331,2.0,11.0,83,0.00,,---,0.00,VWS V13.01,2013-03-11 15:30:00,
2013-03-11 10:35:00,25.8,21.6,29.85,North,355,3.0,7.0,84,0.00,,---,0.00,VWS V13.01,2013-03-11 15:35:00,
2013-03-11 10:40:00,25.8,21.6,29.85,NW,324,4.0,8.0,84,0.00,,---,0.00,VWS V13.01,2013-03-11 15:40:00,
2013-03-11 10:45:00,25.8,21.4,29.85,NNW,333,2.0,8.0,83,0.00,,---,0.00,VWS V13.01,2013-03-11 15:45:00,
2013-03-11 10:50:00,25.9,21.5,29.85,NW,315,2.0,7.0,83,0.00,,---,0.00,VWS V13.01,2013-03-11 15:50:00,
2013-03-11 10:56:00,26.0,21.8,29.85,NW,315,5.0,7.0,84,0.00,,---,0.00,VWS V13.01,2013-03-11 15:56:00,
2013-03-11 11:01:00,26.2,21.8,29.85,North,355,5.0,7.0,83,0.00,,---,0.00,VWS V13.01,2013-03-11 16:01:00,
2013-03-11 11:06:00,26.3,21.9,29.84,NW,313,5.0,5.0,83,0.00,,---,0.00,VWS V13.01,2013-03-11 16:06:00,
2013-03-11 11:11:00,26.3,21.6,29.84,NW,306,3.0,10.0,82,0.00,,---,0.00,VWS V13.01,2013-03-11 16:11:00,
2013-03-11 11:16:00,26.3,21.6,29.84,NNW,331,1.0,12.0,82,0.00,,---,0.00,VWS V13.01,2013-03-11 16:16:00,
2013-03-11 11:21:00,26.4,21.7,29.84,NW,313,3.0,5.0,82,0.00,,---,0.00,VWS V13.01,2013-03-11 16:21:00,
2013-03-11 11:26:00,26.7,22.0,29.84,NW,321,4.0,5.0,82,0.00,,---,0.00,VWS V13.01,2013-03-11 16:26:00,
2013-03-11 11:31:00,26.9,21.9,29.84,NNW,340,5.0,7.0,81,0.00,,---,0.00,VWS V13.01,2013-03-11 16:31:00,
2013-03-11 11:36:00,27.0,22.0,29.84,NW,324,4.0,7.0,81,0.00,,---,0.00,VWS V13.01,2013-03-11 16:36:00,
2013-03-11 11:41:00,27.1,22.1,29.84,NW,319,3.0,9.0,81,0.00,,---,0.00,VWS V13.01,2013-03-11 16:41:00,
2013-03-11 11:46:00,27.2,22.1,29.83,NNW,340,0.0,9.0,81,0.00,,---,0.00,VWS V13.01,2013-03-11 16:46:00,
2013-03-11 11:51:00,27.3,22.2,29.83,NW,324,6.0,6.0,81,0.00,,---,0.00,VWS V13.01,2013-03-11 16:51:00,
2013-03-11 11:56:00,27.5,22.5,29.83,NW,311,5.0,7.0,81,0.00,,---,0.00,VWS V13.01,2013-03-11 16:56:00,
2013-03-11 12:01:00,27.8,22.7,29.83,WNW,296,1.0,7.0,81,0.00,,---,0.00,VWS V13.01,2013-03-11 17:01:00,
2013-03-11 12:06:00,28.1,22.7,29.83,NW,305,2.0,10.0,80,0.00,,---,0.00,VWS V13.01,2013-03-11 17:06:00,
2013-03-11 12:11:00,28.1,22.4,29.83,NW,325,2.0,10.0,79,0.00,,---,0.00,VWS V13.01,2013-03-11 17:11:00,
2013-03-11 12:16:00,28.1,22.7,29.83,North,349,2.0,10.0,80,0.00,,---,0.00,VWS V13.01,2013-03-11 17:16:00,
2013-03-11 12:21:00,28.0,22.6,29.83,WNW,288,6.0,6.0,80,0.00,,---,0.00,VWS V13.01,2013-03-11 17:21:00,
2013-03-11 12:26:00,27.9,22.5,29.83,NW,312,2.0,8.0,80,0.00,,---,0.00,VWS V13.01,2013-03-11 17:26:00,
2013-03-11 12:31:00,27.9,22.5,29.83,NNW,333,2.0,8.0,80,0.00,,---,0.00,VWS V13.01,2013-03-11 17:31:00,
2013-03-11 12:36:00,28.0,22.6,29.83,NW,319,10.0,11.0,80,0.00,,---,0.00,VWS V13.01,2013-03-11 17:36:00,
2013-03-11 12:41:00,28.1,22.4,29.83,NNW,342,1.0,11.0,79,0.00,,---,0.00,VWS V13.01,2013-03-11 17:41:00,
2013-03-11 12:46:00,28.2,22.5,29.82,WNW,303,5.0,11.0,79,0.00,,---,0.00,VWS V13.01,2013-03-11 17:46:00,
2013-03-11 12:51:00,28.4,22.7,29.82,NNW,329,3.0,11.0,79,0.00,,---,0.00,VWS V13.01,2013-03-11 17:51:00,
2013-03-11 12:56:00,28.5,22.5,29.82,NW,313,4.0,11.0,78,0.00,,---,0.00,VWS V13.01,2013-03-11 17:56:00,
2013-03-11 13:01:00,28.4,22.4,29.82,WNW,300,3.0,11.0,78,0.00,,---,0.00,VWS V13.01,2013-03-11 18:01:00,
2013-03-11 13:06:00,28.5,22.5,29.82,North,349,7.0,9.0,78,0.00,,---,0.00,VWS V13.01,2013-03-11 18:06:00,
2013-03-11 13:11:00,28.7,22.4,29.82,NW,304,1.0,9.0,77,0.00,,---,0.00,VWS V13.01,2013-03-11 18:11:00,
2013-03-11 13:16:00,28.9,22.6,29.81,NNW,336,2.0,9.0,77,0.00,,---,0.00,VWS V13.01,2013-03-11 18:16:00,
2013-03-11 13:21:00,29.3,22.7,29.81,NW,317,3.0,7.0,76,0.00,,---,0.00,VWS V13.01,2013-03-11 18:21:00,
2013-03-11 13:26:00,29.5,22.9,29.81,North,350,3.0,9.0,76,0.01,,---,0.01,VWS V13.01,2013-03-11 18:26:00,
2013-03-11 13:31:00,29.6,22.7,29.81,NNW,336,1.0,9.0,75,0.01,,---,0.01,VWS V13.01,2013-03-11 18:31:00,
2013-03-11 13:36:00,29.9,23.3,29.80,NW,306,5.0,7.0,76,0.01,,---,0.01,VWS V13.01,2013-03-11 18:36:00,
2013-03-11 13:41:00,30.3,23.0,29.80,NNW,338,0.0,9.0,74,0.01,,---,0.01,VWS V13.01,2013-03-11 18:41:00,
2013-03-11 13:46:00,30.3,22.7,29.80,North,355,9.0,9.0,73,0.01,,---,0.01,VWS V13.01,2013-03-11 18:46:00,
2013-03-11 13:51:00,30.0,22.7,29.80,NW,304,5.0,10.0,74,0.01,,---,0.01,VWS V13.01,2013-03-11 18:51:00,
2013-03-11 13:56:00,30.2,23.2,29.80,North,5,3.0,13.0,75,0.01,,---,0.01,VWS V13.01,2013-03-11 18:56:00,
2013-03-11 14:01:00,30.4,22.5,29.80,NNW,341,6.0,13.0,72,0.01,,---,0.01,VWS V13.01,2013-03-11 19:01:00,
2013-03-11 14:06:00,30.4,22.5,29.79,WNW,297,3.0,9.0,72,0.01,,---,0.01,VWS V13.01,2013-03-11 19:06:00,
2013-03-11 14:12:00,30.4,22.5,29.79,WNW,298,0.0,9.0,72,0.01,,---,0.01,VWS V13.01,2013-03-11 19:12:00,
2013-03-11 14:17:00,30.5,22.9,29.79,NW,306,4.0,5.0,73,0.01,,---,0.01,VWS V13.01,2013-03-11 19:17:00,
2013-03-11 14:22:00,30.5,22.2,29.78,NNW,339,0.0,7.0,71,0.01,,---,0.01,VWS V13.01,2013-03-11 19:22:00,
2013-03-11 14:27:00,30.5,22.9,29.78,NNW,342,1.0,7.0,73,0.01,,---,0.01,VWS V13.01,2013-03-11 19:27:00,
2013-03-11 14:32:00,30.6,23.0,29.78,West,276,4.0,5.0,73,0.01,,---,0.01,VWS V13.01,2013-03-11 19:32:00,
2013-03-11 14:37:00,30.4,23.1,29.78,WNW,291,2.0,9.0,74,0.00,,---,0.01,VWS V13.01,2013-03-11 19:37:00,
2013-03-11 14:42:00,30.3,23.3,29.78,West,279,5.0,9.0,75,0.00,,---,0.01,VWS V13.01,2013-03-11 19:42:00,
2013-03-11 14:47:00,30.1,23.1,29.78,NW,325,6.0,6.0,75,0.00,,---,0.01,VWS V13.01,2013-03-11 19:47:00,
2013-03-11 14:52:00,30.0,22.7,29.78,WNW,283,3.0,7.0,74,0.00,,---,0.01,VWS V13.01,2013-03-11 19:52:00,
2013-03-11 14:57:00,29.9,22.6,29.78,WNW,285,5.0,12.0,74,0.00,,---,0.01,VWS V13.01,2013-03-11 19:57:00,
2013-03-11 15:02:00,29.9,23.0,29.78,WNW,302,7.0,10.0,75,0.00,,---,0.01,VWS V13.01,2013-03-11 20:02:00,
2013-03-11 15:07:00,29.8,22.5,29.78,WNW,301,6.0,10.0,74,0.00,,---,0.01,VWS V13.01,2013-03-11 20:07:00,
2013-03-11 15:12:00,29.9,22.3,29.78,NW,317,3.0,10.0,73,0.00,,---,0.01,VWS V13.01,2013-03-11 20:12:00,
2013-03-11 15:17:00,30.2,22.6,29.79,WNW,292,3.0,5.0,73,0.00,,---,0.01,VWS V13.01,2013-03-11 20:17:00,
2013-03-11 15:22:00,30.4,22.5,29.79,North,355,2.0,10.0,72,0.00,,---,0.01,VWS V13.01,2013-03-11 20:22:00,
2013-03-11 15:27:00,30.5,22.2,29.79,NW,325,0.0,10.0,71,0.00,,---,0.01,VWS V13.01,2013-03-11 20:27:00,
2013-03-11 15:32:00,30.5,22.2,29.79,West,271,0.0,3.0,71,0.00,,---,0.01,VWS V13.01,2013-03-11 20:32:00,
2013-03-11 15:37:00,30.6,22.7,29.79,NNW,327,5.0,7.0,72,0.00,,---,0.01,VWS V13.01,2013-03-11 20:37:00,
2013-03-11 15:43:00,30.7,22.4,29.79,WNW,299,3.0,7.0,71,0.00,,---,0.01,VWS V13.01,2013-03-11 20:43:00,
2013-03-11 15:48:00,30.9,22.6,29.79,NW,306,4.0,6.0,71,0.00,,---,0.01,VWS V13.01,2013-03-11 20:48:00,
2013-03-11 15:53:00,30.9,23.0,29.79,WNW,300,9.0,10.0,72,0.00,,---,0.01,VWS V13.01,2013-03-11 20:53:00,
2013-03-11 15:58:00,31.0,22.7,29.79,NW,309,6.0,10.0,71,0.00,,---,0.01,VWS V13.01,2013-03-11 20:58:00,
2013-03-11 16:03:00,31.1,22.5,29.79,West,274,4.0,7.0,70,0.00,,---,0.01,VWS V13.01,2013-03-11 21:03:00,
2013-03-11 16:08:00,31.0,22.4,29.79,NNW,327,3.0,10.0,70,0.00,,---,0.01,VWS V13.01,2013-03-11 21:08:00,
2013-03-11 16:13:00,31.0,22.4,29.79,North,355,0.0,10.0,70,0.00,,---,0.01,VWS V13.01,2013-03-11 21:13:00,
2013-03-11 16:18:00,31.1,22.1,29.79,WNW,300,4.0,4.0,69,0.00,,---,0.01,VWS V13.01,2013-03-11 21:18:00,
2013-03-11 16:23:00,31.1,22.5,29.79,WNW,290,5.0,7.0,70,0.00,,---,0.01,VWS V13.01,2013-03-11 21:23:00,
2013-03-11 16:28:00,31.0,22.0,29.79,WNW,302,6.0,7.0,69,0.00,,---,0.01,VWS V13.01,2013-03-11 21:28:00,
2013-03-11 16:33:00,30.8,22.2,29.79,WNW,288,6.0,6.0,70,0.00,,---,0.01,VWS V13.01,2013-03-11 21:33:00,
2013-03-11 16:38:00,30.6,22.3,29.80,NW,314,3.0,7.0,71,0.00,,---,0.01,VWS V13.01,2013-03-11 21:38:00,
2013-03-11 16:43:00,30.5,22.6,29.80,NW,313,4.0,7.0,72,0.00,,---,0.01,VWS V13.01,2013-03-11 21:43:00,
2013-03-11 16:48:00,30.3,22.0,29.80,WNW,299,4.0,5.0,71,0.00,,---,0.01,VWS V13.01,2013-03-11 21:48:00,
2013-03-11 16:53:00,30.2,22.6,29.80,WNW,296,4.0,7.0,73,0.00,,---,0.01,VWS V13.01,2013-03-11 21:53:00,
2013-03-11 16:58:00,30.2,22.6,29.80,West,265,3.0,7.0,73,0.00,,---,0.01,VWS V13.01,2013-03-11 21:58:00,
2013-03-11 17:03:00,30.1,22.5,29.80,NW,312,5.0,5.0,73,0.00,,---,0.01,VWS V13.01,2013-03-11 22:03:00,
2013-03-11 17:08:00,30.1,22.5,29.80,NW,313,4.0,6.0,73,0.00,,---,0.01,VWS V13.01,2013-03-11 22:08:00,
2013-03-11 17:13:00,30.1,22.2,29.80,WNW,300,0.0,10.0,72,0.00,,---,0.01,VWS V13.01,2013-03-11 22:13:00,
2013-03-11 17:18:00,30.0,22.4,29.80,WNW,287,6.0,6.0,73,0.00,,---,0.01,VWS V13.01,2013-03-11 22:18:00,
2013-03-11 17:23:00,29.9,22.3,29.80,WNW,284,3.0,6.0,73,0.00,,---,0.01,VWS V13.01,2013-03-11 22:23:00,
2013-03-11 17:28:00,29.7,22.1,29.80,WNW,295,2.0,7.0,73,0.00,,---,0.01,VWS V13.01,2013-03-11 22:28:00,
2013-03-11 17:33:00,29.6,22.4,29.80,WNW,301,1.0,5.0,74,0.00,,---,0.01,VWS V13.01,2013-03-11 22:33:00,
2013-03-11 17:38:00,29.5,22.2,29.80,West,275,5.0,7.0,74,0.00,,---,0.01,VWS V13.01,2013-03-11 22:38:00,
2013-03-11 17:43:00,29.4,21.8,29.81,NW,307,4.0,7.0,73,0.00,,---,0.01,VWS V13.01,2013-03-11 22:43:00,
2013-03-11 17:48:00,29.3,21.7,29.81,WNW,294,4.0,10.0,73,0.00,,---,0.01,VWS V13.01,2013-03-11 22:48:00,
2013-03-11 17:53:00,29.1,21.5,29.81,WNW,288,3.0,10.0,73,0.00,,---,0.01,VWS V13.01,2013-03-11 22:53:00,
2013-03-11 17:58:00,28.9,21.7,29.81,WNW,297,0.0,10.0,74,0.00,,---,0.01,VWS V13.01,2013-03-11 22:58:00,
2013-03-11 18:03:00,28.8,21.9,29.81,WNW,286,0.0,5.0,75,0.00,,---,0.01,VWS V13.01,2013-03-11 23:03:00,
2013-03-11 18:08:00,28.7,21.8,29.81,WNW,286,0.0,5.0,75,0.00,,---,0.01,VWS V13.01,2013-03-11 23:08:00,
2013-03-11 18:13:00,28.7,21.8,29.81,WNW,287,5.0,5.0,75,0.00,,---,0.01,VWS V13.01,2013-03-11 23:13:00,
2013-03-11 18:18:00,28.5,21.6,29.81,WNW,289,0.0,4.0,75,0.00,,---,0.01,VWS V13.01,2013-03-11 23:18:00,
2013-03-11 18:23:00,28.4,21.5,29.82,WNW,284,3.0,5.0,75,0.00,,---,0.01,VWS V13.01,2013-03-11 23:23:00,
2013-03-11 18:28:00,28.2,21.3,29.82,WNW,283,3.0,5.0,75,0.00,,---,0.01,VWS V13.01,2013-03-11 23:28:00,
2013-03-11 18:33:00,28.1,21.2,29.82,WNW,295,0.0,3.0,75,0.00,,---,0.01,VWS V13.01,2013-03-11 23:33:00,
2013-03-11 18:38:00,28.1,21.5,29.82,WNW,295,2.0,3.0,76,0.00,,---,0.01,VWS V13.01,2013-03-11 23:38:00,
2013-03-11 18:43:00,28.1,21.5,29.82,West,280,4.0,6.0,76,0.00,,---,0.01,VWS V13.01,2013-03-11 23:43:00,
2013-03-11 18:48:00,28.0,21.4,29.82,WNW,288,4.0,5.0,76,0.00,,---,0.01,VWS V13.01,2013-03-11 23:48:00,
2013-03-11 18:53:00,27.9,21.3,29.82,West,275,1.0,5.0,76,0.00,,---,0.01,VWS V13.01,2013-03-11 23:53:00,
2013-03-11 18:58:00,27.8,21.2,29.82,West,275,2.0,5.0,76,0.00,,---,0.01,VWS V13.01,2013-03-11 23:58:00,
2013-03-11 19:03:00,27.7,21.1,29.82,West,275,3.0,5.0,76,0.00,,---,0.01,VWS V13.01,2013-03-12 00:03:00,
2013-03-11 19:08:00,27.6,21.0,29.82,WNW,291,3.0,5.0,76,0.00,,---,0.01,VWS V13.01,2013-03-12 00:08:00,
2013-03-11 19:13:00,27.6,21.0,29.82,WNW,284,3.0,7.0,76,0.00,,---,0.01,VWS V13.01,2013-03-12 00:13:00,
2013-03-11 19:18:00,27.5,20.9,29.82,WNW,291,5.0,5.0,76,0.00,,---,0.01,VWS V13.01,2013-03-12 00:18:00,
2013-03-11 19:23:00,27.4,20.8,29.83,West,273,3.0,9.0,76,0.00,,---,0.01,VWS V13.01,2013-03-12 00:23:00,
2013-03-11 19:28:00,27.3,21.1,29.83,West,281,8.0,9.0,77,0.00,,---,0.01,VWS V13.01,2013-03-12 00:28:00,
2013-03-11 19:33:00,27.1,20.9,29.83,WNW,295,0.0,5.0,77,0.00,,---,0.01,VWS V13.01,2013-03-12 00:33:00,
2013-03-11 19:38:00,26.9,21.0,29.83,West,281,3.0,5.0,78,0.00,,---,0.01,VWS V13.01,2013-03-12 00:38:00,
2013-03-11 19:43:00,26.8,20.9,29.83,West,266,1.0,6.0,78,0.00,,---,0.01,VWS V13.01,2013-03-12 00:43:00,
2013-03-11 19:48:00,26.7,20.5,29.83,WNW,291,3.0,5.0,77,0.00,,---,0.01,VWS V13.01,2013-03-12 00:48:00,
2013-03-11 19:54:00,26.6,20.4,29.83,WNW,287,5.0,6.0,77,0.00,,---,0.01,VWS V13.01,2013-03-12 00:54:00,
2013-03-11 19:59:00,26.5,20.6,29.83,WNW,301,3.0,6.0,78,0.00,,---,0.01,VWS V13.01,2013-03-12 00:59:00,
2013-03-11 20:04:00,26.3,20.4,29.83,WSW,254,2.0,4.0,78,0.00,,---,0.01,VWS V13.01,2013-03-12 01:04:00,
2013-03-11 20:09:00,26.2,20.3,29.83,WNW,293,3.0,6.0,78,0.00,,---,0.01,VWS V13.01,2013-03-12 01:09:00,
2013-03-11 20:14:00,26.1,20.2,29.84,West,279,2.0,6.0,78,0.00,,---,0.01,VWS V13.01,2013-03-12 01:14:00,
2013-03-11 20:19:00,26.0,20.1,29.84,West,265,0.0,4.0,78,0.00,,---,0.01,VWS V13.01,2013-03-12 01:19:00,
2013-03-11 20:24:00,25.8,20.2,29.84,West,267,0.0,5.0,79,0.00,,---,0.01,VWS V13.01,2013-03-12 01:24:00,
2013-03-11 20:29:00,25.7,20.1,29.84,West,267,1.0,5.0,79,0.00,,---,0.01,VWS V13.01,2013-03-12 01:29:00,
2013-03-11 20:34:00,25.6,20.3,29.84,West,267,2.0,2.0,80,0.00,,---,0.01,VWS V13.01,2013-03-12 01:34:00,
2013-03-11 20:39:00,25.5,20.2,29.84,West,267,2.0,9.0,80,0.00,,---,0.01,VWS V13.01,2013-03-12 01:39:00,
2013-03-11 20:44:00,25.4,20.1,29.84,WSW,258,1.0,9.0,80,0.00,,---,0.01,VWS V13.01,2013-03-12 01:44:00,
2013-03-11 20:49:00,25.3,19.7,29.84,WNW,282,2.0,5.0,79,0.00,,---,0.01,VWS V13.01,2013-03-12 01:49:00,
2013-03-11 20:54:00,25.2,19.6,29.84,West,268,5.0,6.0,79,0.00,,---,0.01,VWS V13.01,2013-03-12 01:54:00,
2013-03-11 20:59:00,25.2,19.6,29.85,WSW,252,3.0,7.0,79,0.00,,---,0.01,VWS V13.01,2013-03-12 01:59:00,
2013-03-11 21:04:00,25.1,19.5,29.85,WNW,288,5.0,7.0,79,0.00,,---,0.01,VWS V13.01,2013-03-12 02:04:00,
2013-03-11 21:09:00,24.9,19.3,29.85,West,264,2.0,9.0,79,0.00,,---,0.01,VWS V13.01,2013-03-12 02:09:00,
2013-03-11 21:14:00,24.8,18.9,29.85,West,269,5.0,9.0,78,0.00,,---,0.01,VWS V13.01,2013-03-12 02:14:00,
2013-03-11 21:19:00,24.6,18.7,29.85,West,279,4.0,5.0,78,0.00,,---,0.01,VWS V13.01,2013-03-12 02:19:00,
2013-03-11 21:24:00,24.4,18.5,29.85,West,271,0.0,7.0,78,0.00,,---,0.01,VWS V13.01,2013-03-12 02:24:00,
2013-03-11 21:29:00,24.3,18.4,29.86,WSW,242,7.0,11.0,78,0.00,,---,0.01,VWS V13.01,2013-03-12 02:29:00,
2013-03-11 21:34:00,24.1,18.2,29.86,WSW,254,1.0,9.0,78,0.00,,---,0.01,VWS V13.01,2013-03-12 02:34:00,
2013-03-11 21:39:00,23.9,18.0,29.85,West,263,2.0,9.0,78,0.00,,---,0.01,VWS V13.01,2013-03-12 02:39:00,
2013-03-11 21:44:00,23.8,18.2,29.86,West,260,0.0,9.0,79,0.00,,---,0.01,VWS V13.01,2013-03-12 02:44:00,
2013-03-11 21:49:00,23.6,18.1,29.86,West,277,2.0,4.0,79,0.00,,---,0.01,VWS V13.01,2013-03-12 02:49:00,
2013-03-11 21:54:00,23.5,18.0,29.86,West,277,0.0,4.0,79,0.00,,---,0.01,VWS V13.01,2013-03-12 02:54:00,
2013-03-11 21:59:00,23.3,17.8,29.86,West,277,0.0,5.0,79,0.00,,---,0.01,VWS V13.01,2013-03-12 02:59:00,
2013-03-11 22:04:00,23.1,17.6,29.86,West,277,0.0,2.0,79,0.00,,---,0.01,VWS V13.01,2013-03-12 03:04:00,
2013-03-11 22:09:00,22.9,17.7,29.86,West,261,3.0,7.0,80,0.00,,---,0.01,VWS V13.01,2013-03-12 03:09:00,
2013-03-11 22:14:00,22.6,17.4,29.86,West,262,2.0,7.0,80,0.00,,---,0.01,VWS V13.01,2013-03-12 03:14:00,
2013-03-11 22:19:00,22.3,17.4,29.86,West,269,1.0,5.0,81,0.00,,---,0.01,VWS V13.01,2013-03-12 03:19:00,
2013-03-11 22:24:00,22.2,17.5,29.87,West,265,0.0,5.0,82,0.00,,---,0.01,VWS V13.01,2013-03-12 03:24:00,
2013-03-11 22:29:00,22.0,17.4,29.87,WSW,246,3.0,5.0,82,0.00,,---,0.01,VWS V13.01,2013-03-12 03:29:00,
2013-03-11 22:34:00,21.8,17.2,29.87,WSW,246,0.0,6.0,82,0.00,,---,0.01,VWS V13.01,2013-03-12 03:34:00,
2013-03-11 22:39:00,21.6,17.2,29.87,West,263,2.0,6.0,83,0.00,,---,0.01,VWS V13.01,2013-03-12 03:39:00,
2013-03-11 22:44:00,21.5,17.1,29.87,West,261,0.0,6.0,83,0.00,,---,0.01,VWS V13.01,2013-03-12 03:44:00,
2013-03-11 22:49:00,21.3,17.2,29.87,West,261,2.0,4.0,84,0.00,,---,0.01,VWS V13.01,2013-03-12 03:49:00,
2013-03-11 22:54:00,21.1,17.0,29.87,West,271,3.0,5.0,84,0.00,,---,0.01,VWS V13.01,2013-03-12 03:54:00,
2013-03-11 22:59:00,21.0,17.2,29.87,West,271,1.0,5.0,85,0.00,,---,0.01,VWS V13.01,2013-03-12 03:59:00,
2013-03-11 23:00:00,21.0,17.2,29.87,West,272,4.0,5.0,85,0.00,,---,0.01,VWS V13.01,2013-03-12 04:00:00,
2013-03-11 23:05:00,20.8,17.0,29.87,West,272,2.0,3.0,85,0.00,,---,0.01,VWS V13.01,2013-03-12 04:05:00,
2013-03-11 23:10:00,20.6,16.8,29.87,West,272,0.0,4.0,85,0.00,,---,0.01,VWS V13.01,2013-03-12 04:10:00,
2013-03-11 23:15:00,20.3,16.5,29.87,West,272,0.0,4.0,85,0.00,,---,0.01,VWS V13.01,2013-03-12 04:15:00,
2013-03-11 23:20:00,20.0,16.5,29.87,West,272,0.0,4.0,86,0.00,,---,0.01,VWS V13.01,2013-03-12 04:20:00,
2013-03-11 23:25:00,19.7,16.2,29.87,West,271,4.0,4.0,86,0.00,,---,0.01,VWS V13.01,2013-03-12 04:25:00,
2013-03-11 23:30:00,19.5,16.3,29.87,West,271,0.0,4.0,87,0.00,,---,0.01,VWS V13.01,2013-03-12 04:30:00,
2013-03-11 23:35:00,19.4,16.2,29.88,West,271,0.0,3.0,87,0.00,,---,0.01,VWS V13.01,2013-03-12 04:35:00,
2013-03-11 23:40:00,19.3,16.1,29.88,West,271,2.0,3.0,87,0.00,,---,0.01,VWS V13.01,2013-03-12 04:40:00,
2013-03-11 23:45:00,18.9,15.7,29.88,West,271,0.0,3.0,87,0.00,,---,0.01,VWS V13.01,2013-03-12 04:45:00,
2013-03-11 23:50:00,18.7,15.5,29.88,West,269,0.0,4.0,87,0.00,,---,0.01,VWS V13.01,2013-03-12 04:50:00,
2013-03-11 23:55:00,18.5,15.3,29.88,West,269,0.0,4.0,87,0.00,,---,0.01,VWS V13.01,2013-03-12 04:55:00,